When you browse on this site, cookies collect data to enhance your experience and personalize the content and advertising you see.
Visit our Privacy Policy to learn more. By continuing to use the site, you agree to this use of cookies and data.
  • In Hungary
  • List of Countries
  • For 7 days
  • Water Temperature
  • Satellite Maps
  • Weather Map
  • News
  • Weather Widgets
  • user-avatar
    Login

    Hourly Weather Krempna

    Today, 26 April, Friday

    Time Temperature Precipitation Wind Pressure Humidity
    00:00 +12°C° 0 mm 3 mps 712 mmHg 94%
    01:00 +12°C° 0 mm 2 mps 712 mmHg 96%
    02:00 +12°C° 0 mm 2 mps 711 mmHg 96%
    03:00 +10°C° 0 mm 2 mps 711 mmHg 96%
    04:00 +10°C° 0 mm 3 mps 711 mmHg 96%
    05:00 +12°C° 0 mm 3 mps 711 mmHg 91%
    06:00 +13°C° 0 mm 4 mps 711 mmHg 86%
    07:00 +14°C° 0 mm 5 mps 711 mmHg 79%
    08:00 +16°C° 0 mm 6 mps 711 mmHg 70%
    09:00 +18°C° 0 mm 7 mps 711 mmHg 61%
    10:00 +21°C° 0 mm 7 mps 711 mmHg 52%
    11:00 +22°C° 0 mm 7 mps 711 mmHg 49%
    12:00 +23°C° 0 mm 7 mps 711 mmHg 45%
    13:00 +24°C° 0 mm 7 mps 711 mmHg 42%
    14:00 +23°C° 0 mm 7 mps 711 mmHg 45%
    15:00 +23°C° 0 mm 6 mps 710 mmHg 47%
    16:00 +23°C° 0 mm 5 mps 710 mmHg 50%
    17:00 +21°C° 0 mm 5 mps 710 mmHg 57%
    18:00 +19°C° 0 mm 5 mps 710 mmHg 63%
    19:00 +18°C° 0 mm 4 mps 709 mmHg 70%
    20:00 +17°C° 0 mm 4 mps 709 mmHg 73%
    21:00 +16°C° 0 mm 3 mps 709 mmHg 76%
    22:00 +16°C° 0 mm 3 mps 709 mmHg 79%
    23:00 +14°C° 0 mm 3 mps 709 mmHg 82%

    Tomorrow, 27 April, Saturday

    Time Temperature Precipitation Wind Pressure Humidity
    00:00 +14°C° 0 mm 3 mps 709 mmHg 86%
    01:00 +13°C° 0 mm 3 mps 708 mmHg 89%
    02:00 +13°C° 0.3 mm 3 mps 708 mmHg 89%
    03:00 +13°C° 0.3 mm 3 mps 708 mmHg 89%
    04:00 +13°C° 0.3 mm 4 mps 708 mmHg 89%
    05:00 +13°C° 0.2 mm 4 mps 708 mmHg 89%
    06:00 +14°C° 0.2 mm 3 mps 708 mmHg 89%
    07:00 +14°C° 0.2 mm 3 mps 708 mmHg 89%
    08:00 +14°C° 0.4 mm 3 mps 709 mmHg 87%
    09:00 +16°C° 0.4 mm 2 mps 709 mmHg 86%
    10:00 +16°C° 0.4 mm 2 mps 709 mmHg 84%
    11:00 +16°C° 1.1 mm 2 mps 709 mmHg 84%
    12:00 +16°C° 1.1 mm 2 mps 709 mmHg 85%
    13:00 +16°C° 1.1 mm 2 mps 709 mmHg 85%
    14:00 +14°C° 1.2 mm 3 mps 709 mmHg 88%
    15:00 +12°C° 1.2 mm 3 mps 708 mmHg 90%
    16:00 +10°C° 1.2 mm 4 mps 708 mmHg 93%
    17:00 +10°C° 0.5 mm 4 mps 708 mmHg 94%
    18:00 +10°C° 0.5 mm 3 mps 709 mmHg 94%
    19:00 +9°C° 0.5 mm 3 mps 709 mmHg 94%
    20:00 +9°C° 0.3 mm 3 mps 709 mmHg 94%
    21:00 +9°C° 0.3 mm 3 mps 709 mmHg 94%
    22:00 +9°C° 0.3 mm 3 mps 709 mmHg 94%
    23:00 +9°C° 1 mm 3 mps 709 mmHg 94%

    Day after tomorrow, 28 April, Sunday

    Time Temperature Precipitation Wind Pressure Humidity
    00:00 +8°C° 1 mm 3 mps 709 mmHg 94%
    01:00 +8°C° 1 mm 3 mps 709 mmHg 94%
    02:00 +8°C° 1.4 mm 3 mps 709 mmHg 94%
    03:00 +8°C° 1.4 mm 3 mps 709 mmHg 94%
    04:00 +8°C° 1.4 mm 3 mps 709 mmHg 94%
    05:00 +8°C° 1.8 mm 3 mps 709 mmHg 94%
    06:00 +6°C° 1.8 mm 4 mps 709 mmHg 94%
    07:00 +6°C° 1.8 mm 4 mps 709 mmHg 94%
    08:00 +6°C° 1.4 mm 4 mps 709 mmHg 94%
    09:00 +6°C° 1.4 mm 5 mps 709 mmHg 94%
    10:00 +6°C° 1.4 mm 5 mps 710 mmHg 94%
    11:00 +6°C° 1.4 mm 5 mps 710 mmHg 94%
    12:00 +7°C° 1.4 mm 6 mps 710 mmHg 94%
    13:00 +7°C° 1.4 mm 6 mps 710 mmHg 94%
    14:00 +7°C° 1.4 mm 6 mps 709 mmHg 94%
    15:00 +5°C° 1.4 mm 6 mps 709 mmHg 95%
    16:00 +5°C° 1.4 mm 6 mps 709 mmHg 95%
    17:00 +5°C° 1.3 mm 6 mps 709 mmHg 95%
    18:00 +5°C° 1.3 mm 6 mps 709 mmHg 95%
    19:00 +5°C° 1.3 mm 6 mps 709 mmHg 95%
    20:00 +6°C° 1.3 mm 5 mps 709 mmHg 95%
    21:00 +6°C° 1.3 mm 5 mps 709 mmHg 95%
    22:00 +6°C° 1.3 mm 5 mps 709 mmHg 96%
    23:00 +6°C° 0.8 mm 5 mps 709 mmHg 96%

    29 April, Monday

    Time Temperature Precipitation Wind Pressure Humidity
    00:00 +6°C° 0.8 mm 5 mps 709 mmHg 96%
    01:00 +6°C° 0.8 mm 5 mps 709 mmHg 97%
    02:00 +6°C° 2.7 mm 4 mps 709 mmHg 97%
    03:00 +6°C° 2.7 mm 4 mps 708 mmHg 97%
    04:00 +7°C° 2.7 mm 3 mps 708 mmHg 98%
    05:00 +7°C° 2.7 mm 3 mps 708 mmHg 97%
    06:00 +6°C° 2.7 mm 4 mps 708 mmHg 96%
    07:00 +6°C° 2.7 mm 4 mps 708 mmHg 96%
    08:00 +6°C° 0.1 mm 4 mps 708 mmHg 94%
    09:00 +7°C° 0.1 mm 4 mps 708 mmHg 92%
    10:00 +7°C° 0.1 mm 4 mps 708 mmHg 90%
    11:00 +7°C° 0.8 mm 4 mps 708 mmHg 92%
    12:00 +7°C° 0.8 mm 3 mps 708 mmHg 93%
    13:00 +7°C° 0.8 mm 3 mps 708 mmHg 95%
    14:00 +7°C° 0.4 mm 3 mps 708 mmHg 95%
    15:00 +7°C° 0.4 mm 3 mps 707 mmHg 95%
    16:00 +7°C° 0.4 mm 3 mps 707 mmHg 95%
    17:00 +7°C° 0.6 mm 3 mps 707 mmHg 96%
    18:00 +6°C° 0.6 mm 2 mps 707 mmHg 96%
    19:00 +6°C° 0.6 mm 2 mps 707 mmHg 96%
    20:00 +6°C° 2.2 mm 2 mps 707 mmHg 97%
    21:00 +6°C° 2.2 mm 2 mps 707 mmHg 97%
    22:00 +6°C° 2.2 mm 2 mps 707 mmHg 98%
    23:00 +7°C° 0.8 mm 1 mps 707 mmHg 98%

    30 April, Tuesday

    Time Temperature Precipitation Wind Pressure Humidity
    00:00 +8°C° 0.8 mm 1 mps 707 mmHg 98%
    01:00 +8°C° 0.8 mm 1 mps 706 mmHg 98%
    02:00 +8°C° 0.1 mm 1 mps 706 mmHg 98%
    03:00 +7°C° 0.1 mm 0 mps 706 mmHg 98%
    04:00 +7°C° 0.1 mm 0 mps 706 mmHg 98%
    05:00 +7°C° 0.2 mm 0 mps 706 mmHg 98%
    06:00 +8°C° 0.2 mm 0 mps 707 mmHg 97%
    07:00 +8°C° 0.2 mm 0 mps 707 mmHg 97%
    08:00 +9°C° 0.3 mm 1 mps 707 mmHg 96%
    09:00 +9°C° 0.3 mm 1 mps 707 mmHg 96%
    10:00 +9°C° 0.3 mm 2 mps 708 mmHg 96%
    11:00 +9°C° 0.5 mm 2 mps 708 mmHg 95%
    12:00 +8°C° 0.5 mm 3 mps 708 mmHg 95%
    13:00 +8°C° 0.5 mm 3 mps 708 mmHg 95%
    14:00 +8°C° 0.5 mm 3 mps 708 mmHg 95%
    15:00 +8°C° 0.5 mm 3 mps 708 mmHg 95%
    16:00 +8°C° 0.5 mm 3 mps 708 mmHg 95%
    17:00 +8°C° 0.1 mm 3 mps 708 mmHg 95%
    18:00 +8°C° 0.1 mm 2 mps 708 mmHg 96%
    19:00 +7°C° 0.1 mm 2 mps 708 mmHg 96%
    20:00 +7°C° 0 mm 2 mps 708 mmHg 96%
    21:00 +7°C° 0 mm 2 mps 708 mmHg 96%
    22:00 +7°C° 0 mm 2 mps 709 mmHg 96%
    23:00 +6°C° 0 mm 2 mps 708 mmHg 96%

    1 May, Wednesday

    Time Temperature Precipitation Wind Pressure Humidity
    00:00 +5°C° 0 mm 2 mps 708 mmHg 96%
    01:00 +5°C° 0 mm 2 mps 708 mmHg 97%
    02:00 +4°C° 0 mm 2 mps 708 mmHg 97%
    03:00 +4°C° 0 mm 2 mps 708 mmHg 97%
    04:00 +4°C° 0 mm 2 mps 708 mmHg 97%
    05:00 +4°C° 0 mm 2 mps 709 mmHg 95%
    06:00 +5°C° 0 mm 2 mps 709 mmHg 93%
    07:00 +5°C° 0 mm 3 mps 709 mmHg 91%
    08:00 +8°C° 0 mm 3 mps 709 mmHg 82%
    09:00 +9°C° 0 mm 3 mps 709 mmHg 73%
    10:00 +11°C° 0 mm 4 mps 709 mmHg 64%
    11:00 +11°C° 0 mm 4 mps 709 mmHg 60%
    12:00 +12°C° 0 mm 4 mps 709 mmHg 56%
    13:00 +13°C° 0 mm 4 mps 709 mmHg 52%
    14:00 +12°C° 0 mm 4 mps 709 mmHg 53%
    15:00 +12°C° 0 mm 4 mps 709 mmHg 54%
    16:00 +12°C° 0 mm 4 mps 709 mmHg 55%
    17:00 +10°C° 0 mm 3 mps 709 mmHg 63%
    18:00 +8°C° 0 mm 2 mps 709 mmHg 70%
    19:00 +7°C° 0 mm 1 mps 709 mmHg 78%
    20:00 +7°C° 0 mm 1 mps 709 mmHg 79%
    21:00 +7°C° 0 mm 1 mps 709 mmHg 80%
    22:00 +7°C° 0 mm 1 mps 709 mmHg 81%
    23:00 +7°C° 0.3 mm 1 mps 709 mmHg 84%
    Show more